Location: Taukkyan
(23.1052°N, 94.0030°E)
Time: 23:05:10
(UTC+00:00)

OAO 3 Copernicus - Pass Details

Date: 06 July 2020
Orbit: 695 x 704 km, 35.0° (Epoch: 05 August)

Event Time Altitude Azimuth Distance (km) Brightness Sun altitude
Rises 14:05:02 0° 238° (WSW) 3,071 7.9 -18.9°
Reaches altitude 10° 14:07:27 10° 237° (WSW) 2,153 7.1 -19.4°
Maximum altitude 14:12:29 80° 151° (SSE) 710 4.2 -20.3°
Enters shadow 14:15:34 24° 66° (ENE) 1,430 5.6 -20.9°
